« Back
NWS Peachtree City, Ga » Text Product » GA Regional Weather Roundup


Printer-friendly Version
Current Version              Previous Versions:   1  2  3  4  5  6  7  8  9  

Regional Weather Roundup

577
ASUS42 KFFC 242003
RWRGA
WEATHER ROUNDUP FOR GEORGIA
NATIONAL WEATHER SERVICE PEACHTREE CITY GA
400 PM EDT SUN MAY 24 2015

NOTE: "FAIR" INDICATES FEW OR NO CLOUDS BELOW 12,000 FEET WITH NO
SIGNIFICANT WEATHER AND/OR OBSTRUCTIONS TO VISIBILITY.

* = USE WITH CAUTION. THE STATIONS MARKED WITH AN ASTERISK MAY NOT
REPORT WEATHER SUCH AS PRECIPITATION, FOG, OR THUNDER AND ARE NOT
QUALITY CONTROLLED BY NWS.

THE REMARK "TC" DENOTES TEMPERATURE READING IN DEGREES CELSIUS.

GAZ001>058-242100-
NORTH GEORGIA

CITY           SKY/WX    TMP DP  RH WIND       PRES   REMARKS
ATLANTA        PTSUNNY   80  59  48 SE10      30.26F
ATHENS         MOSUNNY   81  56  42 SE5       30.28F
CHAMBLEE       MOSUNNY   83  60  45 E10       30.26F
PEACHTREE CITY CLOUDY    83  59  44 VRB6      30.25F
ROME           CLOUDY    81  61  50 SE9       30.22F
WEST ATLANTA   PTSUNNY   83  59  44 SE12      30.25F
GAINESVILLE    PTSUNNY   79  57  46 E12G17    30.30F
CARTERSVILLE   CLOUDY    83  59  44 SE9       30.25F


CITY           SKY/WX    TMP DP  RH WIND       PRES   REMARKS
DALTON*        PTSUNNY   81  59  47 SE8       30.25F
LAWRENCEVILLE* PTSUNNY   79  55  44 E9        30.27F
KENNESAW*      PTSUNNY   81  61  50 S7        30.27F
BLAIRSVILLE*     N/A     76  13   9 S9        30.32F
$$

GAZ059>098-102>109-242100-
CENTRAL GEORGIA

CITY           SKY/WX    TMP DP  RH WIND       PRES   REMARKS
AUGUSTA-BUSH   MOSUNNY   85  56  37 SE9       30.27F
AUGUSTA-DANIEL SUNNY     85  54  34 S10G17    30.28F
COLUMBUS       PTSUNNY   84  62  47 SE10      30.21F
MACON          MOSUNNY   87  59  38 SE7       30.23F


CITY           SKY/WX    TMP DP  RH WIND       PRES   REMARKS
LAGRANGE*      CLOUDY    86  71  59 SE6       30.23F HX  91
SYLVANIA*      MOSUNNY   85  61  43 SE8       30.29F
MILLEDGEVILLE* MOSUNNY   86  63  45 E3        30.25F
$$

GAZ099>101-110>166-242100-
SOUTH GEORGIA

CITY           SKY/WX    TMP DP  RH WIND       PRES   REMARKS
SAVANNAH       PTSUNNY   80  61  52 E17G23    30.29F
VALDOSTA       PTSUNNY   86  63  45 E8        30.20F
ALMA           MOSUNNY   83  57  41 E9        30.23F
ALBANY         MOSUNNY   89  61  38 E13       30.21F
HUNTER AFB     MOSUNNY   83  66  56 E16G22    30.27F
MOODY AFB      MOSUNNY   88  59  37 E12       30.20F
BRUNSWICK      PTSUNNY   82  63  51 E16       30.27F


CITY           SKY/WX    TMP DP  RH WIND       PRES   REMARKS
BAINBRIDGE*    MOSUNNY   95  70  43 E9G16     30.18F HX 101
MOULTRIE*      MOSUNNY   90  61  37 SE8       30.21F
VIDALIA*       MOSUNNY   86  55  35 E10       30.25F
WAYCROSS*      PTSUNNY   86  63  45 E13       30.24S
DOUGLAS*       PTSUNNY   88  55  33 E13G18    30.24F
$$



USA.gov is the U.S. government's official web portal to all federal, state and local government web resources and services.